User: anonymous   Login
Location: Unspecified
(0.0000°N, 0.0000°E)
Time: 06:46:29
(UTC+00:00)
Language:

Meteosat 2 - Orbit

View from above orbital plane
View from above orbital plane
View from above satellite
View from above satellite

Ground track
Ground track

The orbit data is extracted from the following two-line orbital elements,

1 12544U 81057A   23272.35220281 -.00000164  00000-0  00000-0 0  9998
2 12544  11.9587 326.1675 0025935 353.9157 185.0485  0.98726061114057
Epoch (UTC): 29 September 2023 08:27:10
Eccentricity: 0.0025935
inclination: 11.9587°
perigee height: 36114 km
apogee height: 36335 km
right ascension of ascending node: 326.1675°
argument of perigee: 353.9157°
revolutions per day: 0.98726061
mean anomaly at epoch: 185.0485°
orbit number at epoch: 11405

The dashed part of the orbit path shows where the satellite is in the earth's shadow,  

DLR